Location: *
(17.3280°S, 114.7300°W)
Time: 10:56:02
(UTC+00:00)

Envisat - Pass Details

Date: 02 November 2020
Orbit: 764 x 766 km, 98.1° (Epoch: 28 November)

Event Time Altitude Azimuth Distance (km) Brightness Sun altitude
Rises 02:33:17 0° 198° (SSW) 3,248 6.8 -11.8°
Reaches altitude 10° 02:36:47 10° 223° (SW) 2,314 6.6 -12.6°
Maximum altitude 02:39:13 14° 252° (WSW) 2,071 6.6 -13.1°
Drops below altitude 10° 02:41:38 10° 281° (W) 2,304 6.4 -13.6°
Sets 02:45:07 0° 306° (NW) 3,222 6.7 -14.4°
